Home > Weather > Wilmington > Past weeks

Flag for U.S.A. Weather for the Past 2 Weeks in Wilmington, North Carolina, U.S.A.

Now
52 °F

Clear.


Feels Like: 48 °F
Forecast: 36 / 46 °F
Wind: 12 mph from Southwest

Location: New Hanover International Airport

Current Time: Feb 8, 2016 at 7:36:50 PM

Latest Report: Feb 8, 2016 at 6:53 PM


Visibility: 10 mi

Pressure: 29.68 "Hg

Humidity: 53%

Dew point: 35 °F

Location of WilmingtonLocation

Historic Weather in Wilmington — Graph

°F

Wilmington Temperature Yesterday

Maximum temperature yesterday: 42 °F (at 11:53 PM)
Minimum temperature yesterday: 35 °F (at 11:53 AM)
Average temperature yesterday: 38 °F

High & Low Weather Summary for the Past Weeks

 TemperatureHumidityPressure
High76 °F (Feb 1, 2:53 PM)97% (Feb 4, 4:03 AM)30.44 "Hg (Feb 4, 4:03 AM)
Low27 °F (Jan 25, 2:53 AM)34% (Jan 31, 1:53 PM)29.68 "Hg (Jan 29, 1:53 AM)
Average50 °F73%30.07 "Hg
* Reported Jan 24 5:53 PM — Feb 8 5:53 PM, Wilmington, Weather by CustomWeather, © 2016

Note: Actual official high and low records may vary slightly from our data, if they occured in-between our weather recording intervals... More about our weather records

Advertising

Wilmington Weather History for the Previous 24 Hours

 ConditionsComfort  
Time TempWeatherWind HumidityBarometerVisibility
5:53 PM
Mon, Feb 8
52 °FClear.10 mph50%29.69 "Hg10 mi
4:53 PM54 °FSunny.9 mph45%29.69 "Hg10 mi
3:53 PM55 °FSunny.12 mph51%29.71 "Hg10 mi
2:53 PM55 °FSunny.13 mph51%29.73 "Hg10 mi
1:53 PM55 °FSunny.15 mph42%29.75 "Hg10 mi
12:53 PM54 °FSunny.10 mph47%29.78 "Hg10 mi
11:53 AM53 °FSunny.N/A41%29.82 "Hg10 mi
10:53 AM50 °FSunny.No wind46%29.85 "Hg10 mi
9:53 AM46 °FSunny.3 mph54%29.88 "Hg10 mi
8:53 AM42 °FSunny.7 mph62%29.88 "Hg10 mi
7:53 AM36 °FSunny.6 mph79%29.88 "Hg10 mi
6:53 AM33 °FClear.3 mph82%29.87 "Hg10 mi
5:53 AM35 °FClear.5 mph75%29.86 "Hg10 mi
4:53 AM38 °FClear.8 mph63%29.84 "Hg10 mi
3:53 AM39 °FClear.12 mph60%29.81 "Hg10 mi
2:53 AM40 °FClear.15 mph55%29.80 "Hg10 mi
1:53 AM41 °FClear.12 mph53%29.77 "Hg10 mi
12:53 AM41 °FClear.16 mph58%29.76 "Hg10 mi
11:53 PM
Sun, Feb 7
42 °FPassing clouds.17 mph57%29.75 "Hg10 mi
10:53 PM41 °FMostly cloudy.17 mph62%29.75 "Hg10 mi
9:53 PM40 °FOvercast.21 mph65%29.74 "Hg10 mi
8:53 PM38 °FLight rain. Overcast.21 mph79%29.73 "Hg10 mi
7:53 PM38 °FLight rain. Overcast.22 mph79%29.72 "Hg10 mi
Weather by CustomWeather, © 2016

See weather overviewHow to use our weather pages